Location: Christchurch
(43.5330°S, 172.6330°E)
Time: 15:37:42
(UTC+12:00)

ISS - Pass Details

Date: 21 May 2021
Orbit: 417 x 422 km, 51.6° (Epoch: 22 June)

Event Time Altitude Azimuth Distance (km) Brightness Sun altitude
Rises 06:27:21 0° 336° (NNW) 2,375 0.0 -13.5°
Reaches altitude 10° 06:29:43 10° 352° (N) 1,517 -0.8 -13.1°
Maximum altitude 06:32:27 22° 45° (NE) 978 -1.1 -12.6°
Drops below altitude 10° 06:35:12 10° 98° (E) 1,530 0.2 -12.1°
Sets 06:37:36 0° 113° (ESE) 2,402 1.0 -11.7°
